Time,TemperatureF,DewpointF,PressureIn,WindDirection,WindDirectionDegrees,WindSpeedMPH,WindSpeedGustMPH,Humidity,HourlyPrecipIn,Conditions,Clouds,dailyrainin,SoftwareType,DateUTC
2013-10-27 00:01:00,54.7,18.6,30.04,SSE,168,4.6,4.6,24,0.00,CLR,,0.00,WeatherDisplay:10.37,2013-10-27 07:01:00,
2013-10-27 00:06:00,55.3,19.1,30.04,East,94,3.5,3.5,24,0.00,CLR,,0.00,WeatherDisplay:10.37,2013-10-27 07:06:00,
2013-10-27 00:11:00,55.0,18.8,30.04,East,94,2.3,2.3,24,0.00,CLR,,0.00,WeatherDisplay:10.37,2013-10-27 07:11:00,
2013-10-27 00:16:00,54.8,19.6,30.04,East,94,2.3,2.3,25,0.00,CLR,,0.00,WeatherDisplay:10.37,2013-10-27 07:16:00,
2013-10-27 00:21:00,54.5,19.3,30.04,East,94,2.3,2.3,25,0.00,CLR,,0.00,WeatherDisplay:10.37,2013-10-27 07:21:00,
2013-10-27 00:26:00,54.3,19.2,30.04,East,94,3.5,3.5,25,0.00,CLR,,0.00,WeatherDisplay:10.37,2013-10-27 07:26:00,
2013-10-27 00:31:00,54.2,19.1,30.04,East,94,0.0,0.0,25,0.00,CLR,,0.00,WeatherDisplay:10.37,2013-10-27 07:31:00,
2013-10-27 00:36:00,53.9,18.8,30.04,East,94,0.0,0.0,25,0.00,CLR,,0.00,WeatherDisplay:10.37,2013-10-27 07:36:00,
2013-10-27 00:41:00,53.8,19.7,30.04,East,94,0.0,0.0,26,0.00,CLR,,0.00,WeatherDisplay:10.37,2013-10-27 07:41:00,
2013-10-27 00:46:00,53.6,19.5,30.04,East,94,0.0,0.0,26,0.00,CLR,,0.00,WeatherDisplay:10.37,2013-10-27 07:46:00,
2013-10-27 00:51:00,53.4,19.3,30.04,East,94,0.0,0.0,26,0.00,CLR,,0.00,WeatherDisplay:10.37,2013-10-27 07:51:00,
2013-10-27 00:56:00,53.4,19.3,30.04,East,94,0.0,0.0,26,0.00,CLR,,0.00,WeatherDisplay:10.37,2013-10-27 07:56:00,
2013-10-27 01:01:00,53.7,19.6,30.04,East,94,2.3,2.3,26,0.00,CLR,,0.00,WeatherDisplay:10.37,2013-10-27 08:01:00,
2013-10-27 01:06:00,54.0,20.7,30.04,ESE,111,4.6,4.6,27,0.00,CLR,,0.00,WeatherDisplay:10.37,2013-10-27 08:06:00,
2013-10-27 01:11:00,53.9,19.8,30.03,ESE,111,3.5,3.5,26,0.00,CLR,,0.00,WeatherDisplay:10.37,2013-10-27 08:11:00,
2013-10-27 01:16:00,53.8,19.7,30.03,ESE,111,0.0,0.0,26,0.00,CLR,,0.00,WeatherDisplay:10.37,2013-10-27 08:16:00,
2013-10-27 01:21:00,53.4,19.3,30.03,ESE,111,0.0,0.0,26,0.00,CLR,,0.00,WeatherDisplay:10.37,2013-10-27 08:21:00,
2013-10-27 01:26:00,52.6,18.6,30.03,ESE,111,0.0,0.0,26,0.00,CLR,,0.00,WeatherDisplay:10.37,2013-10-27 08:26:00,
2013-10-27 01:31:00,52.3,19.3,30.03,ESE,111,0.0,0.0,27,0.00,CLR,,0.00,WeatherDisplay:10.37,2013-10-27 08:31:00,
2013-10-27 01:36:00,52.1,19.1,30.03,ESE,111,0.0,0.0,27,0.00,CLR,,0.00,WeatherDisplay:10.37,2013-10-27 08:36:00,
2013-10-27 01:41:00,52.3,19.3,30.03,ESE,111,0.0,0.0,27,0.00,CLR,,0.00,WeatherDisplay:10.37,2013-10-27 08:41:00,
2013-10-27 01:46:00,52.4,19.3,30.03,ESE,111,0.0,0.0,27,0.00,CLR,,0.00,WeatherDisplay:10.37,2013-10-27 08:46:00,
2013-10-27 01:51:00,52.8,19.7,30.02,ESE,111,0.0,0.0,27,0.00,CLR,,0.00,WeatherDisplay:10.37,2013-10-27 08:51:00,
2013-10-27 01:56:00,52.8,18.8,30.02,ESE,111,0.0,0.0,26,0.00,CLR,,0.00,WeatherDisplay:10.37,2013-10-27 08:56:00,
2013-10-27 02:01:00,52.3,19.3,30.02,ESE,111,0.0,0.0,27,0.00,CLR,,0.00,WeatherDisplay:10.37,2013-10-27 09:01:00,
2013-10-27 02:06:00,51.9,18.9,30.02,ESE,111,0.0,0.0,27,0.00,CLR,,0.00,WeatherDisplay:10.37,2013-10-27 09:06:00,
2013-10-27 02:11:00,51.2,18.3,30.02,ESE,111,0.0,0.0,27,0.00,CLR,,0.00,WeatherDisplay:10.37,2013-10-27 09:11:00,
2013-10-27 02:16:00,50.8,18.0,30.02,ESE,115,3.5,3.5,27,0.00,CLR,,0.00,WeatherDisplay:10.37,2013-10-27 09:16:00,
2013-10-27 02:21:00,50.5,18.6,30.02,ESE,115,0.0,0.0,28,0.00,CLR,,0.00,WeatherDisplay:10.37,2013-10-27 09:21:00,
2013-10-27 02:26:00,50.3,17.5,30.02,ESE,114,0.0,0.0,27,0.00,CLR,,0.00,WeatherDisplay:10.37,2013-10-27 09:26:00,
2013-10-27 02:31:00,50.1,18.2,30.02,ESE,115,0.0,0.0,28,0.00,CLR,,0.00,WeatherDisplay:10.37,2013-10-27 09:31:00,
2013-10-27 02:36:00,50.1,18.2,30.02,ESE,115,3.5,3.5,28,0.00,CLR,,0.00,WeatherDisplay:10.37,2013-10-27 09:36:00,
2013-10-27 02:41:00,50.1,19.0,30.02,ESE,115,2.3,2.3,29,0.00,CLR,,0.00,WeatherDisplay:10.37,2013-10-27 09:41:00,
2013-10-27 02:46:00,50.0,18.1,30.02,ESE,116,2.3,2.3,28,0.00,CLR,,0.00,WeatherDisplay:10.37,2013-10-27 09:46:00,
2013-10-27 02:51:00,49.9,18.9,30.02,ESE,116,0.0,0.0,29,0.00,CLR,,0.00,WeatherDisplay:10.37,2013-10-27 09:51:00,
2013-10-27 02:56:00,49.8,18.8,30.02,ESE,115,0.0,0.0,29,0.00,CLR,,0.00,WeatherDisplay:10.37,2013-10-27 09:56:00,
2013-10-27 03:01:00,50.0,18.9,30.01,ESE,115,0.0,0.0,29,0.00,CLR,,0.00,WeatherDisplay:10.37,2013-10-27 10:01:00,
2013-10-27 03:06:00,50.2,19.1,30.01,ESE,116,0.0,0.0,29,0.00,CLR,,0.00,WeatherDisplay:10.37,2013-10-27 10:06:00,
2013-10-27 03:11:00,50.0,18.9,30.01,ESE,115,0.0,0.0,29,0.00,CLR,,0.00,WeatherDisplay:10.37,2013-10-27 10:11:00,
2013-10-27 03:16:00,50.0,18.9,30.01,ESE,116,0.0,0.0,29,0.00,CLR,,0.00,WeatherDisplay:10.37,2013-10-27 10:16:00,
2013-10-27 03:21:00,49.7,18.7,30.01,ESE,116,0.0,0.0,29,0.00,CLR,,0.00,WeatherDisplay:10.37,2013-10-27 10:21:00,
2013-10-27 03:26:00,49.5,18.5,30.00,ESE,116,0.0,0.0,29,0.00,CLR,,0.00,WeatherDisplay:10.37,2013-10-27 10:26:00,
2013-10-27 03:31:00,49.3,18.3,30.00,ESE,116,0.0,0.0,29,0.00,CLR,,0.00,WeatherDisplay:10.37,2013-10-27 10:31:00,
2013-10-27 03:36:00,49.2,18.3,30.00,ESE,115,0.0,0.0,29,0.00,CLR,,0.00,WeatherDisplay:10.37,2013-10-27 10:36:00,
2013-10-27 03:41:00,49.2,18.3,30.00,ESE,116,0.0,0.0,29,0.00,CLR,,0.00,WeatherDisplay:10.37,2013-10-27 10:41:00,
2013-10-27 03:46:00,49.2,18.3,30.00,ESE,116,0.0,0.0,29,0.00,CLR,,0.00,WeatherDisplay:10.37,2013-10-27 10:46:00,
2013-10-27 03:51:00,49.1,19.0,30.00,ESE,116,0.0,0.0,30,0.00,CLR,,0.00,WeatherDisplay:10.37,2013-10-27 10:51:00,
2013-10-27 03:57:00,49.3,19.1,30.00,ESE,116,0.0,0.0,30,0.00,CLR,,0.00,WeatherDisplay:10.37,2013-10-27 10:57:00,
2013-10-27 04:02:00,49.5,19.3,29.99,ESE,116,0.0,0.0,30,0.00,CLR,,0.00,WeatherDisplay:10.37,2013-10-27 11:02:00,
2013-10-27 04:07:00,49.5,20.1,29.99,ESE,116,0.0,0.0,31,0.00,CLR,,0.00,WeatherDisplay:10.37,2013-10-27 11:07:00,
2013-10-27 04:12:00,49.6,19.4,29.99,ESE,116,0.0,0.0,30,0.00,CLR,,0.00,WeatherDisplay:10.37,2013-10-27 11:12:00,
2013-10-27 04:17:00,49.4,20.0,29.99,ESE,116,0.0,0.0,31,0.00,CLR,,0.00,WeatherDisplay:10.37,2013-10-27 11:17:00,
2013-10-27 04:22:00,49.1,19.7,29.99,ESE,115,0.0,0.0,31,0.00,CLR,,0.00,WeatherDisplay:10.37,2013-10-27 11:22:00,
2013-10-27 04:27:00,48.7,18.6,29.99,ESE,115,0.0,0.0,30,0.00,CLR,,0.00,WeatherDisplay:10.37,2013-10-27 11:27:00,
2013-10-27 04:32:00,48.3,19.8,29.99,ESE,116,2.3,2.3,32,0.00,CLR,,0.00,WeatherDisplay:10.37,2013-10-27 11:32:00,
2013-10-27 04:37:00,47.9,19.4,29.99,ESE,116,0.0,0.0,32,0.00,CLR,,0.00,WeatherDisplay:10.37,2013-10-27 11:37:00,
2013-10-27 04:42:00,47.7,19.2,29.99,ESE,116,0.0,0.0,32,0.00,CLR,,0.00,WeatherDisplay:10.37,2013-10-27 11:42:00,
2013-10-27 04:47:00,47.4,17.5,29.99,ESE,115,0.0,0.0,30,0.00,CLR,,0.00,WeatherDisplay:10.37,2013-10-27 11:47:00,
2013-10-27 04:52:00,47.1,18.7,29.99,ESE,115,0.0,0.0,32,0.00,CLR,,0.00,WeatherDisplay:10.37,2013-10-27 11:52:00,
2013-10-27 04:57:00,46.9,17.8,29.99,ESE,116,0.0,0.0,31,0.00,CLR,,0.00,WeatherDisplay:10.37,2013-10-27 11:57:00,
2013-10-27 05:03:00,46.8,18.5,29.99,ESE,116,0.0,0.0,32,0.00,CLR,,0.00,WeatherDisplay:10.37,2013-10-27 12:03:00,
2013-10-27 05:08:00,47.0,19.3,29.99,ESE,116,0.0,0.0,33,0.00,CLR,,0.00,WeatherDisplay:10.37,2013-10-27 12:08:00,
2013-10-27 05:13:00,47.2,19.5,29.99,ESE,115,0.0,0.0,33,0.00,CLR,,0.00,WeatherDisplay:10.37,2013-10-27 12:13:00,
2013-10-27 05:18:00,47.3,19.6,29.99,ESE,116,0.0,0.0,33,0.00,CLR,,0.00,WeatherDisplay:10.37,2013-10-27 12:18:00,
2013-10-27 05:23:00,47.4,19.7,29.99,ESE,116,0.0,0.0,33,0.00,CLR,,0.00,WeatherDisplay:10.37,2013-10-27 12:23:00,
2013-10-27 05:28:00,47.6,19.9,29.99,ESE,115,0.0,0.0,33,0.00,CLR,,0.00,WeatherDisplay:10.37,2013-10-27 12:28:00,
2013-10-27 05:33:00,47.5,19.8,29.99,ESE,116,0.0,0.0,33,0.00,CLR,,0.00,WeatherDisplay:10.37,2013-10-27 12:33:00,
2013-10-27 05:38:00,47.3,19.6,29.99,ESE,116,0.0,0.0,33,0.00,CLR,,0.00,WeatherDisplay:10.37,2013-10-27 12:38:00,
2013-10-27 05:41:00,47.2,20.9,29.99,ESE,115,0.0,0.0,35,0.00,CLR,,0.00,WeatherDisplay:10.37,2013-10-27 12:41:00,
2013-10-27 05:46:00,47.0,20.0,29.98,ESE,115,0.0,0.0,34,0.00,CLR,,0.00,WeatherDisplay:10.37,2013-10-27 12:46:00,
2013-10-27 05:51:00,46.6,19.7,29.98,ESE,116,0.0,0.0,34,0.00,CLR,,0.00,WeatherDisplay:10.37,2013-10-27 12:51:00,
2013-10-27 05:56:00,45.9,18.4,29.99,ESE,115,0.0,0.0,33,0.00,CLR,,0.00,WeatherDisplay:10.37,2013-10-27 12:56:00,
2013-10-27 06:01:00,45.3,18.5,29.99,ESE,115,0.0,0.0,34,0.00,CLR,,0.00,WeatherDisplay:10.37,2013-10-27 13:01:00,
2013-10-27 06:06:00,45.1,19.0,29.99,ESE,115,0.0,0.0,35,0.00,CLR,,0.00,WeatherDisplay:10.37,2013-10-27 13:06:00,
2013-10-27 06:11:00,45.1,19.0,29.99,ESE,116,0.0,0.0,35,0.00,CLR,,0.00,WeatherDisplay:10.37,2013-10-27 13:11:00,
2013-10-27 06:17:00,45.1,19.0,29.98,ESE,116,0.0,0.0,35,0.00,CLR,,0.00,WeatherDisplay:10.37,2013-10-27 13:17:00,
2013-10-27 06:22:00,45.2,19.1,29.99,ESE,116,0.0,0.0,35,0.00,CLR,,0.00,WeatherDisplay:10.37,2013-10-27 13:22:00,
2013-10-27 06:27:00,45.4,18.6,29.99,ESE,116,0.0,0.0,34,0.00,CLR,,0.00,WeatherDisplay:10.37,2013-10-27 13:27:00,
2013-10-27 06:32:00,45.6,18.8,29.98,ESE,116,0.0,0.0,34,0.00,CLR,,0.00,WeatherDisplay:10.37,2013-10-27 13:32:00,
2013-10-27 06:37:00,45.7,18.9,29.98,ESE,116,0.0,0.0,34,0.00,CLR,,0.00,WeatherDisplay:10.37,2013-10-27 13:37:00,
2013-10-27 06:42:00,45.5,18.7,29.98,ESE,116,0.0,0.0,34,0.00,CLR,,0.00,WeatherDisplay:10.37,2013-10-27 13:42:00,
2013-10-27 06:48:00,45.0,19.6,29.98,ESE,115,0.0,0.0,36,0.00,CLR,,0.00,WeatherDisplay:10.37,2013-10-27 13:48:00,
2013-10-27 06:53:00,44.8,19.4,29.98,ESE,115,0.0,0.0,36,0.00,CLR,,0.00,WeatherDisplay:10.37,2013-10-27 13:53:00,
2013-10-27 06:58:00,44.5,19.2,29.98,ESE,116,0.0,0.0,36,0.00,CLR,,0.00,WeatherDisplay:10.37,2013-10-27 13:58:00,
2013-10-27 07:03:00,44.5,19.8,29.98,ESE,116,0.0,0.0,37,0.00,CLR,,0.00,WeatherDisplay:10.37,2013-10-27 14:03:00,
2013-10-27 07:08:00,44.7,21.2,29.98,ESE,115,0.0,0.0,39,0.00,CLR,,0.00,WeatherDisplay:10.37,2013-10-27 14:08:00,
2013-10-27 07:13:00,44.9,20.8,29.98,ESE,116,0.0,0.0,38,0.00,CLR,,0.00,WeatherDisplay:10.37,2013-10-27 14:13:00,
2013-10-27 07:18:00,45.0,20.9,29.98,ESE,116,0.0,0.0,38,0.00,CLR,,0.00,WeatherDisplay:10.37,2013-10-27 14:18:00,
2013-10-27 07:23:00,45.0,20.3,29.98,ESE,116,0.0,0.0,37,0.00,CLR,,0.00,WeatherDisplay:10.37,2013-10-27 14:23:00,
2013-10-27 07:28:00,45.2,21.1,29.99,ESE,116,0.0,0.0,38,0.00,CLR,,0.00,WeatherDisplay:10.37,2013-10-27 14:28:00,
2013-10-27 07:34:00,45.6,20.1,29.99,ESE,115,0.0,0.0,36,0.00,CLR,,0.00,WeatherDisplay:10.37,2013-10-27 14:34:00,
2013-10-27 07:39:00,45.9,20.4,29.98,ESE,116,0.0,0.0,36,0.00,CLR,,0.00,WeatherDisplay:10.37,2013-10-27 14:39:00,
2013-10-27 07:44:00,46.7,21.1,29.98,ESE,116,0.0,0.0,36,0.00,CLR,,0.00,WeatherDisplay:10.37,2013-10-27 14:44:00,
2013-10-27 07:49:00,47.6,21.3,29.99,ESE,115,0.0,0.0,35,0.00,CLR,,0.00,WeatherDisplay:10.37,2013-10-27 14:49:00,
2013-10-27 07:54:00,48.4,21.3,29.99,ESE,115,0.0,0.0,34,0.00,CLR,,0.00,WeatherDisplay:10.37,2013-10-27 14:54:00,
2013-10-27 07:59:00,48.4,21.3,29.99,ESE,115,0.0,0.0,34,0.00,CLR,,0.00,WeatherDisplay:10.37,2013-10-27 14:59:00,
2013-10-27 08:04:00,48.7,21.5,29.99,ESE,115,0.0,0.0,34,0.00,CLR,,0.00,WeatherDisplay:10.37,2013-10-27 15:04:00,
2013-10-27 08:09:00,49.0,21.1,29.99,ESE,116,0.0,0.0,33,0.00,CLR,,0.00,WeatherDisplay:10.37,2013-10-27 15:09:00,
2013-10-27 08:14:00,49.4,21.5,29.99,ESE,115,0.0,0.0,33,0.00,CLR,,0.00,WeatherDisplay:10.37,2013-10-27 15:14:00,
2013-10-27 08:19:00,50.5,22.4,29.99,ESE,116,0.0,0.0,33,0.00,CLR,,0.00,WeatherDisplay:10.37,2013-10-27 15:19:00,
2013-10-27 08:24:00,51.5,21.8,29.99,ESE,116,0.0,0.0,31,0.00,CLR,,0.00,WeatherDisplay:10.37,2013-10-27 15:24:00,
2013-10-27 08:29:00,52.2,21.7,29.99,ESE,116,0.0,0.0,30,0.00,CLR,,0.00,WeatherDisplay:10.37,2013-10-27 15:29:00,
2013-10-27 08:34:00,52.3,21.7,29.99,ESE,116,0.0,0.0,30,0.00,CLR,,0.00,WeatherDisplay:10.37,2013-10-27 15:34:00,
2013-10-27 08:39:00,52.4,21.8,29.99,ESE,116,0.0,0.0,30,0.00,CLR,,0.00,WeatherDisplay:10.37,2013-10-27 15:39:00,
2013-10-27 08:44:00,52.8,21.4,29.99,ESE,115,0.0,0.0,29,0.00,CLR,,0.00,WeatherDisplay:10.37,2013-10-27 15:44:00,
2013-10-27 08:49:00,53.6,21.2,29.99,ESE,115,0.0,0.0,28,0.00,CLR,,0.00,WeatherDisplay:10.37,2013-10-27 15:49:00,
2013-10-27 08:54:00,54.4,21.9,29.99,ESE,116,0.0,0.0,28,0.00,CLR,,0.00,WeatherDisplay:10.37,2013-10-27 15:54:00,
2013-10-27 09:00:00,55.2,21.8,29.99,ESE,115,0.0,0.0,27,0.00,CLR,,0.00,WeatherDisplay:10.37,2013-10-27 16:00:00,
2013-10-27 09:05:00,55.2,21.8,29.99,ESE,116,0.0,0.0,27,0.00,CLR,,0.00,WeatherDisplay:10.37,2013-10-27 16:05:00,
2013-10-27 09:10:00,55.3,22.7,29.99,ESE,115,0.0,0.0,28,0.00,CLR,,0.00,WeatherDisplay:10.37,2013-10-27 16:10:00,
2013-10-27 09:15:00,56.6,23.0,29.99,ESE,116,0.0,0.0,27,0.00,CLR,,0.00,WeatherDisplay:10.37,2013-10-27 16:15:00,
2013-10-27 09:20:00,57.8,23.1,29.99,ESE,116,0.0,0.0,26,0.00,CLR,,0.00,WeatherDisplay:10.37,2013-10-27 16:20:00,
2013-10-27 09:25:00,58.9,23.1,29.99,ESE,115,0.0,0.0,25,0.00,CLR,,0.00,WeatherDisplay:10.37,2013-10-27 16:25:00,
2013-10-27 09:30:00,59.4,23.5,29.99,ESE,116,0.0,0.0,25,0.00,CLR,,0.00,WeatherDisplay:10.37,2013-10-27 16:30:00,
2013-10-27 09:35:00,60.0,23.1,29.98,ESE,116,0.0,0.0,24,0.00,CLR,,0.00,WeatherDisplay:10.37,2013-10-27 16:35:00,
2013-10-27 09:40:00,60.7,23.7,29.98,ESE,115,1.2,0.0,24,0.00,CLR,,0.00,WeatherDisplay:10.37,2013-10-27 16:40:00,
2013-10-27 09:45:00,61.3,24.2,29.98,ESE,115,0.0,0.0,24,0.00,CLR,,0.00,WeatherDisplay:10.37,2013-10-27 16:45:00,
2013-10-27 09:50:00,62.0,23.7,29.98,ESE,115,0.0,0.0,23,0.00,CLR,,0.00,WeatherDisplay:10.37,2013-10-27 16:50:00,
2013-10-27 09:55:00,62.9,24.5,29.98,ESE,116,0.0,0.0,23,0.00,CLR,,0.00,WeatherDisplay:10.37,2013-10-27 16:55:00,
2013-10-27 10:00:00,64.2,24.5,29.97,ESE,116,0.0,0.0,22,0.00,CLR,,0.00,WeatherDisplay:10.37,2013-10-27 17:00:00,
2013-10-27 10:05:00,65.0,24.1,29.97,ESE,116,0.0,0.0,21,0.00,CLR,,0.00,WeatherDisplay:10.37,2013-10-27 17:05:00,
2013-10-27 10:10:00,65.0,25.2,29.97,ESE,116,0.0,0.0,22,0.00,CLR,,0.00,WeatherDisplay:10.37,2013-10-27 17:10:00,
2013-10-27 10:16:00,66.0,24.9,29.97,ESE,116,0.0,0.0,21,0.00,CLR,,0.00,WeatherDisplay:10.37,2013-10-27 17:16:00,
2013-10-27 10:21:00,66.6,24.2,29.96,SE,127,0.0,0.0,20,0.00,CLR,,0.00,WeatherDisplay:10.37,2013-10-27 17:21:00,
2013-10-27 10:26:00,66.6,24.2,29.96,SE,129,0.0,0.0,20,0.00,CLR,,0.00,WeatherDisplay:10.37,2013-10-27 17:26:00,
2013-10-27 10:31:00,67.2,24.7,29.96,SE,129,0.0,0.0,20,0.00,CLR,,0.00,WeatherDisplay:10.37,2013-10-27 17:31:00,
2013-10-27 10:36:00,67.6,25.1,29.96,SE,131,0.0,0.0,20,0.00,CLR,,0.00,WeatherDisplay:10.37,2013-10-27 17:36:00,
2013-10-27 10:41:00,67.9,24.1,29.95,SE,130,0.0,0.0,19,0.00,CLR,,0.00,WeatherDisplay:10.37,2013-10-27 17:41:00,
2013-10-27 10:46:00,68.6,24.7,29.95,SW,228,0.0,0.0,19,0.00,CLR,,0.00,WeatherDisplay:10.37,2013-10-27 17:46:00,
2013-10-27 10:51:00,68.7,24.7,29.95,SW,229,0.0,0.0,19,0.00,CLR,,0.00,WeatherDisplay:10.37,2013-10-27 17:51:00,
2013-10-27 10:57:00,69.3,25.2,29.95,SW,226,0.0,0.0,19,0.00,CLR,,0.00,WeatherDisplay:10.37,2013-10-27 17:57:00,
2013-10-27 11:02:00,69.8,24.3,29.95,SW,226,0.0,0.0,18,0.00,CLR,,0.00,WeatherDisplay:10.37,2013-10-27 18:02:00,
2013-10-27 11:07:00,70.5,24.9,29.95,SW,226,0.0,0.0,18,0.00,CLR,,0.00,WeatherDisplay:10.37,2013-10-27 18:07:00,
2013-10-27 11:12:00,71.2,24.1,29.94,WSW,242,3.5,3.5,17,0.00,CLR,,0.00,WeatherDisplay:10.37,2013-10-27 18:12:00,
2013-10-27 11:17:00,71.9,24.7,29.94,WSW,242,0.0,0.0,17,0.00,CLR,,0.00,WeatherDisplay:10.37,2013-10-27 18:17:00,
2013-10-27 11:22:00,72.3,23.6,29.94,WSW,242,0.0,0.0,16,0.00,CLR,,0.00,WeatherDisplay:10.37,2013-10-27 18:22:00,
2013-10-27 11:27:00,73.5,24.5,29.94,SE,137,3.5,3.5,16,0.00,CLR,,0.00,WeatherDisplay:10.37,2013-10-27 18:27:00,
2013-10-27 11:32:00,74.8,25.6,29.94,SE,130,3.5,3.5,16,0.00,CLR,,0.00,WeatherDisplay:10.37,2013-10-27 18:32:00,
2013-10-27 11:37:00,75.3,24.4,29.93,SW,214,4.6,4.6,15,0.00,CLR,,0.00,WeatherDisplay:10.37,2013-10-27 18:37:00,
2013-10-27 11:42:00,75.3,24.4,29.93,SSE,147,4.6,4.6,15,0.00,CLR,,0.00,WeatherDisplay:10.37,2013-10-27 18:42:00,
2013-10-27 11:47:00,75.5,26.1,29.93,SE,135,5.8,5.8,16,0.00,CLR,,0.00,WeatherDisplay:10.37,2013-10-27 18:47:00,
2013-10-27 11:52:00,75.8,24.8,29.92,South,178,6.0,6.0,15,0.00,CLR,,0.00,WeatherDisplay:10.37,2013-10-27 18:52:00,
2013-10-27 11:57:00,76.2,25.1,29.92,SSW,194,6.9,6.9,15,0.00,CLR,,0.00,WeatherDisplay:10.37,2013-10-27 18:57:00,
2013-10-27 12:02:00,76.5,25.4,29.92,South,176,10.4,10.4,15,0.00,CLR,,0.00,WeatherDisplay:10.37,2013-10-27 19:02:00,
2013-10-27 12:07:00,77.1,24.2,29.91,SSE,149,13.8,13.8,14,0.00,CLR,,0.00,WeatherDisplay:10.37,2013-10-27 19:07:00,
2013-10-27 12:12:00,77.6,24.6,29.91,South,182,9.2,9.6,14,0.00,CLR,,0.00,WeatherDisplay:10.37,2013-10-27 19:12:00,
2013-10-27 12:17:00,78.5,25.3,29.91,South,182,9.2,9.2,14,0.00,CLR,,0.00,WeatherDisplay:10.37,2013-10-27 19:17:00,
2013-10-27 12:22:00,79.5,24.3,29.90,South,174,16.1,16.1,13,0.00,CLR,,0.00,WeatherDisplay:10.37,2013-10-27 19:22:00,
2013-10-27 12:27:00,80.3,24.9,29.90,SSW,196,11.0,11.0,13,0.00,CLR,,0.00,WeatherDisplay:10.37,2013-10-27 19:27:00,
2013-10-27 12:32:00,80.5,25.1,29.89,SSW,205,11.5,11.5,13,0.00,CLR,,0.00,WeatherDisplay:10.37,2013-10-27 19:32:00,
2013-10-27 12:37:00,80.8,23.4,29.89,SSW,204,9.2,9.2,12,0.00,CLR,,0.00,WeatherDisplay:10.37,2013-10-27 19:37:00,
2013-10-27 12:42:00,81.1,25.6,29.89,South,190,15.0,15.0,13,0.00,CLR,,0.00,WeatherDisplay:10.37,2013-10-27 19:42:00,
2013-10-27 12:47:00,81.2,25.7,29.88,SSW,211,17.3,17.3,13,0.00,CLR,,0.00,WeatherDisplay:10.37,2013-10-27 19:47:00,
2013-10-27 12:52:00,81.3,25.7,29.88,South,180,13.8,13.8,13,0.00,CLR,,0.00,WeatherDisplay:10.37,2013-10-27 19:52:00,
2013-10-27 12:58:00,81.8,26.1,29.87,WSW,250,20.7,20.7,13,0.00,CLR,,0.00,WeatherDisplay:10.37,2013-10-27 19:58:00,
2013-10-27 13:03:00,81.5,25.9,29.87,WSW,252,19.6,19.6,13,0.00,CLR,,0.00,WeatherDisplay:10.37,2013-10-27 20:03:00,
2013-10-27 13:08:00,81.5,25.9,29.86,SW,217,21.9,21.9,13,0.00,CLR,,0.00,WeatherDisplay:10.37,2013-10-27 20:08:00,
2013-10-27 13:13:00,81.2,25.7,29.86,SW,215,24.2,24.2,13,0.00,CLR,,0.00,WeatherDisplay:10.37,2013-10-27 20:13:00,
2013-10-27 13:18:00,81.1,25.6,29.86,SW,236,20.7,20.7,13,0.00,CLR,,0.00,WeatherDisplay:10.37,2013-10-27 20:18:00,
2013-10-27 13:23:00,81.4,25.8,29.85,SSW,195,23.0,23.0,13,0.00,CLR,,0.00,WeatherDisplay:10.37,2013-10-27 20:23:00,
2013-10-27 13:28:00,81.3,25.7,29.85,SW,215,21.0,21.0,13,0.00,CLR,,0.00,WeatherDisplay:10.37,2013-10-27 20:28:00,
2013-10-27 13:33:00,81.4,25.8,29.85,South,185,21.9,21.9,13,0.00,CLR,,0.00,WeatherDisplay:10.37,2013-10-27 20:33:00,
2013-10-27 13:38:00,81.0,25.5,29.85,SW,225,23.0,23.0,13,0.00,CLR,,0.00,WeatherDisplay:10.37,2013-10-27 20:38:00,
2013-10-27 13:44:00,81.1,25.6,29.85,SSW,209,22.0,22.0,13,0.00,CLR,,0.00,WeatherDisplay:10.37,2013-10-27 20:44:00,
2013-10-27 13:49:00,81.3,25.7,29.85,SSW,211,21.9,21.9,13,0.00,CLR,,0.00,WeatherDisplay:10.37,2013-10-27 20:49:00,
2013-10-27 13:54:00,81.2,25.7,29.84,SW,223,23.0,23.0,13,0.00,CLR,,0.00,WeatherDisplay:10.37,2013-10-27 20:54:00,
2013-10-27 13:59:00,81.6,27.8,29.84,SW,215,20.7,20.7,14,0.00,CLR,,0.00,WeatherDisplay:10.37,2013-10-27 20:59:00,
2013-10-27 14:04:00,81.6,27.8,29.83,WSW,246,21.9,21.9,14,0.00,CLR,,0.00,WeatherDisplay:10.37,2013-10-27 21:04:00,
2013-10-27 14:09:00,81.5,27.7,29.83,WSW,250,21.9,21.9,14,0.00,CLR,,0.00,WeatherDisplay:10.37,2013-10-27 21:09:00,
2013-10-27 14:14:00,81.1,27.4,29.83,SW,215,24.2,24.2,14,0.00,CLR,,0.00,WeatherDisplay:10.37,2013-10-27 21:14:00,
2013-10-27 14:19:00,81.2,29.1,29.83,SW,214,21.9,21.9,15,0.00,CLR,,0.00,WeatherDisplay:10.37,2013-10-27 21:19:00,
2013-10-27 14:24:00,81.4,27.6,29.83,SW,231,23.0,23.0,14,0.00,CLR,,0.00,WeatherDisplay:10.37,2013-10-27 21:24:00,
2013-10-27 14:29:00,81.0,29.0,29.83,SSW,194,23.0,23.0,15,0.00,CLR,,0.00,WeatherDisplay:10.37,2013-10-27 21:29:00,
2013-10-27 14:34:00,80.5,28.6,29.83,SSW,212,24.2,24.2,15,0.00,CLR,,0.00,WeatherDisplay:10.37,2013-10-27 21:34:00,
2013-10-27 14:39:00,80.5,28.6,29.82,SW,222,26.5,26.5,15,0.00,CLR,,0.00,WeatherDisplay:10.37,2013-10-27 21:39:00,
2013-10-27 14:44:00,80.3,30.0,29.82,SSW,198,25.3,25.3,16,0.00,CLR,,0.00,WeatherDisplay:10.37,2013-10-27 21:44:00,
2013-10-27 14:49:00,80.1,29.8,29.82,SSW,202,20.7,20.7,16,0.00,CLR,,0.00,WeatherDisplay:10.37,2013-10-27 21:49:00,
2013-10-27 14:55:00,80.1,29.8,29.82,SSW,203,20.0,20.3,16,0.00,CLR,,0.00,WeatherDisplay:10.37,2013-10-27 21:55:00,
2013-10-27 15:00:00,79.6,30.9,29.82,SW,223,25.3,25.3,17,0.00,CLR,,0.00,WeatherDisplay:10.37,2013-10-27 22:00:00,
2013-10-27 15:05:00,79.4,30.8,29.82,SSW,197,25.3,25.3,17,0.00,CLR,,0.00,WeatherDisplay:10.37,2013-10-27 22:05:00,
2013-10-27 15:10:00,79.1,30.5,29.81,South,186,26.5,26.5,17,0.00,CLR,,0.00,WeatherDisplay:10.37,2013-10-27 22:10:00,
2013-10-27 15:15:00,79.3,32.1,29.81,South,191,25.0,25.0,18,0.00,CLR,,0.00,WeatherDisplay:10.37,2013-10-27 22:15:00,
2013-10-27 15:20:00,79.5,32.3,29.81,SSW,202,24.2,24.2,18,0.00,CLR,,0.00,WeatherDisplay:10.37,2013-10-27 22:20:00,
2013-10-27 15:25:00,80.0,29.8,29.81,SW,236,23.0,23.0,16,0.00,CLR,,0.00,WeatherDisplay:10.37,2013-10-27 22:25:00,
2013-10-27 15:30:00,79.8,31.1,29.81,SW,232,25.3,25.3,17,0.00,CLR,,0.00,WeatherDisplay:10.37,2013-10-27 22:30:00,
2013-10-27 15:35:00,79.4,30.8,29.81,WSW,250,19.6,19.6,17,0.00,CLR,,0.00,WeatherDisplay:10.37,2013-10-27 22:35:00,
2013-10-27 15:40:00,79.1,31.9,29.80,SSW,210,26.5,26.5,18,0.00,CLR,,0.00,WeatherDisplay:10.37,2013-10-27 22:40:00,
2013-10-27 15:45:00,78.9,31.8,29.80,SW,230,20.7,20.7,18,0.00,CLR,,0.00,WeatherDisplay:10.37,2013-10-27 22:45:00,
2013-10-27 15:51:00,78.6,31.5,29.80,SW,232,26.5,26.5,18,0.00,CLR,,0.00,WeatherDisplay:10.37,2013-10-27 22:51:00,
2013-10-27 15:56:00,78.3,32.6,29.80,SW,222,26.5,26.5,19,0.00,CLR,,0.00,WeatherDisplay:10.37,2013-10-27 22:56:00,
2013-10-27 16:01:00,78.0,32.4,29.80,SSW,203,27.6,27.6,19,0.00,CLR,,0.00,WeatherDisplay:10.37,2013-10-27 23:01:00,
2013-10-27 16:06:00,77.8,33.5,29.80,SSW,208,23.0,23.0,20,0.00,CLR,,0.00,WeatherDisplay:10.37,2013-10-27 23:06:00,
2013-10-27 16:11:00,77.7,32.1,29.79,SW,221,21.9,21.9,19,0.00,CLR,,0.00,WeatherDisplay:10.37,2013-10-27 23:11:00,
2013-10-27 16:16:00,77.1,32.9,29.79,SW,231,33.4,33.4,20,0.00,CLR,,0.00,WeatherDisplay:10.37,2013-10-27 23:16:00,
2013-10-27 16:21:00,76.6,32.5,29.79,SW,214,26.5,26.5,20,0.00,CLR,,0.00,WeatherDisplay:10.37,2013-10-27 23:21:00,
2013-10-27 16:26:00,76.1,33.3,29.79,SSW,209,24.2,24.2,21,0.00,CLR,,0.00,WeatherDisplay:10.37,2013-10-27 23:26:00,
2013-10-27 16:31:00,76.4,32.3,29.79,SW,214,29.9,29.9,20,0.00,CLR,,0.00,WeatherDisplay:10.37,2013-10-27 23:31:00,
2013-10-27 16:36:00,76.2,32.2,29.79,SSW,207,19.6,19.6,20,0.00,CLR,,0.00,WeatherDisplay:10.37,2013-10-27 23:36:00,
2013-10-27 16:41:00,75.8,31.8,29.79,SSW,204,24.2,24.2,20,0.00,CLR,,0.00,WeatherDisplay:10.37,2013-10-27 23:41:00,
2013-10-27 16:47:00,75.1,32.5,29.79,SW,236,26.5,26.5,21,0.00,CLR,,0.00,WeatherDisplay:10.37,2013-10-27 23:47:00,
2013-10-27 16:52:00,74.8,32.2,29.79,SW,225,26.5,26.5,21,0.00,CLR,,0.00,WeatherDisplay:10.37,2013-10-27 23:52:00,
2013-10-27 16:57:00,74.8,32.2,29.79,SSW,201,26.5,26.5,21,0.00,CLR,,0.00,WeatherDisplay:10.37,2013-10-27 23:57:00,
2013-10-27 17:02:00,74.3,31.8,29.79,WSW,242,27.6,27.6,21,0.00,CLR,,0.00,WeatherDisplay:10.37,2013-10-28 00:02:00,
2013-10-27 17:07:00,73.9,31.5,29.79,WSW,240,23.0,23.0,21,0.00,CLR,,0.00,WeatherDisplay:10.37,2013-10-28 00:07:00,
2013-10-27 17:13:00,73.6,31.2,29.79,SW,234,20.7,20.7,21,0.00,CLR,,0.00,WeatherDisplay:10.37,2013-10-28 00:13:00,
2013-10-27 17:18:00,73.2,30.9,29.78,SSW,202,26.5,26.5,21,0.00,CLR,,0.00,WeatherDisplay:10.37,2013-10-28 00:18:00,
2013-10-27 17:23:00,72.9,31.8,29.78,SW,222,26.5,26.5,22,0.00,CLR,,0.00,WeatherDisplay:10.37,2013-10-28 00:23:00,
2013-10-27 17:28:00,72.6,31.5,29.78,WSW,238,26.5,26.5,22,0.00,CLR,,0.00,WeatherDisplay:10.37,2013-10-28 00:28:00,
2013-10-27 17:33:00,72.3,31.3,29.78,SW,219,26.5,26.5,22,0.00,CLR,,0.00,WeatherDisplay:10.37,2013-10-28 00:33:00,
2013-10-27 17:38:00,71.9,31.0,29.78,SW,234,19.6,19.6,22,0.00,CLR,,0.00,WeatherDisplay:10.37,2013-10-28 00:38:00,
2013-10-27 17:43:00,71.5,31.7,29.78,SSW,207,19.6,19.6,23,0.00,CLR,,0.00,WeatherDisplay:10.37,2013-10-28 00:43:00,
2013-10-27 17:48:00,71.2,32.5,29.78,SSW,211,26.0,26.0,24,0.00,CLR,,0.00,WeatherDisplay:10.37,2013-10-28 00:48:00,
2013-10-27 17:53:00,70.8,32.2,29.78,SSW,193,26.5,26.5,24,0.00,CLR,,0.00,WeatherDisplay:10.37,2013-10-28 00:53:00,
2013-10-27 17:59:00,70.3,32.8,29.78,SW,217,21.9,21.9,25,0.00,CLR,,0.00,WeatherDisplay:10.37,2013-10-28 00:59:00,
2013-10-27 18:04:00,69.8,33.3,29.78,SW,217,19.6,19.6,26,0.00,CLR,,0.00,WeatherDisplay:10.37,2013-10-28 01:04:00,
2013-10-27 18:09:00,69.3,33.9,29.78,SSW,196,20.7,20.7,27,0.00,CLR,,0.00,WeatherDisplay:10.37,2013-10-28 01:09:00,
2013-10-27 18:14:00,68.9,33.5,29.78,SW,234,20.7,20.7,27,0.00,CLR,,0.00,WeatherDisplay:10.37,2013-10-28 01:14:00,
2013-10-27 18:19:00,68.5,33.2,29.78,SW,225,20.7,20.7,27,0.00,CLR,,0.00,WeatherDisplay:10.37,2013-10-28 01:19:00,
2013-10-27 18:24:00,68.1,33.7,29.78,SW,223,24.2,24.2,28,0.00,CLR,,0.00,WeatherDisplay:10.37,2013-10-28 01:24:00,
2013-10-27 18:29:00,67.7,33.4,29.78,SSW,212,19.6,19.6,28,0.00,CLR,,0.00,WeatherDisplay:10.37,2013-10-28 01:29:00,
2013-10-27 18:34:00,67.4,34.0,29.78,SSW,205,18.4,18.4,29,0.00,CLR,,0.00,WeatherDisplay:10.37,2013-10-28 01:34:00,
2013-10-27 18:39:00,67.0,34.5,29.78,SSW,211,17.3,17.3,30,0.00,CLR,,0.00,WeatherDisplay:10.37,2013-10-28 01:39:00,
2013-10-27 18:44:00,66.7,34.3,29.78,SW,215,20.7,20.7,30,0.00,CLR,,0.00,WeatherDisplay:10.37,2013-10-28 01:44:00,
2013-10-27 18:49:00,66.4,34.8,29.78,SW,227,18.4,18.4,31,0.00,CLR,,0.00,WeatherDisplay:10.37,2013-10-28 01:49:00,
2013-10-27 18:54:00,66.0,35.3,29.78,SW,233,18.4,18.4,32,0.00,CLR,,0.00,WeatherDisplay:10.37,2013-10-28 01:54:00,
2013-10-27 18:59:00,65.6,34.9,29.78,WSW,237,17.3,17.3,32,0.00,CLR,,0.00,WeatherDisplay:10.37,2013-10-28 01:59:00,
2013-10-27 19:04:00,65.2,35.4,29.78,SW,223,17.3,17.3,33,0.00,CLR,,0.00,WeatherDisplay:10.37,2013-10-28 02:04:00,
2013-10-27 19:09:00,64.9,35.1,29.78,SW,227,17.3,17.3,33,0.00,CLR,,0.00,WeatherDisplay:10.37,2013-10-28 02:09:00,
2013-10-27 19:15:00,64.6,35.6,29.78,SSW,203,13.0,13.0,34,0.00,CLR,,0.00,WeatherDisplay:10.37,2013-10-28 02:15:00,
2013-10-27 19:20:00,64.3,35.3,29.78,SW,234,11.5,11.5,34,0.00,CLR,,0.00,WeatherDisplay:10.37,2013-10-28 02:20:00,
2013-10-27 19:25:00,63.8,35.6,29.77,SW,214,11.5,11.5,35,0.00,CLR,,0.00,WeatherDisplay:10.37,2013-10-28 02:25:00,
2013-10-27 19:30:00,63.5,36.0,29.77,SW,222,11.5,11.5,36,0.00,CLR,,0.00,WeatherDisplay:10.37,2013-10-28 02:30:00,
2013-10-27 19:35:00,63.2,37.2,29.77,SSW,205,12.7,12.7,38,0.00,CLR,,0.00,WeatherDisplay:10.37,2013-10-28 02:35:00,
2013-10-27 19:40:00,62.9,37.5,29.77,SSW,206,11.5,11.5,39,0.00,CLR,,0.00,WeatherDisplay:10.37,2013-10-28 02:40:00,
2013-10-27 19:45:00,62.4,37.7,29.77,SW,214,10.4,10.4,40,0.00,CLR,,0.00,WeatherDisplay:10.37,2013-10-28 02:45:00,
2013-10-27 19:51:00,61.9,37.9,29.77,SW,219,11.5,11.5,41,0.00,CLR,,0.00,WeatherDisplay:10.37,2013-10-28 02:51:00,
2013-10-27 19:56:00,61.4,38.7,29.77,SW,223,11.5,11.5,43,0.00,CLR,,0.00,WeatherDisplay:10.37,2013-10-28 02:56:00,
2013-10-27 20:01:00,61.1,38.4,29.77,SW,221,11.5,11.5,43,0.00,CLR,,0.00,WeatherDisplay:10.37,2013-10-28 03:01:00,
2013-10-27 20:06:00,60.8,38.7,29.77,SSW,206,11.0,11.0,44,0.00,CLR,,0.00,WeatherDisplay:10.37,2013-10-28 03:06:00,
2013-10-27 20:11:00,60.6,38.6,29.77,SW,234,6.9,6.9,44,0.00,CLR,,0.00,WeatherDisplay:10.37,2013-10-28 03:11:00,
2013-10-27 20:16:00,60.4,38.9,29.77,WSW,252,11.5,11.5,45,0.00,CLR,,0.00,WeatherDisplay:10.37,2013-10-28 03:16:00,
2013-10-27 20:21:00,60.2,39.3,29.77,SW,215,11.5,11.5,46,0.00,CLR,,0.00,WeatherDisplay:10.37,2013-10-28 03:21:00,
2013-10-27 20:27:00,60.0,39.1,29.77,SW,219,11.5,11.5,46,0.00,CLR,,0.00,WeatherDisplay:10.37,2013-10-28 03:27:00,
2013-10-27 20:32:00,59.9,39.6,29.76,SW,214,13.8,13.8,47,0.00,CLR,,0.00,WeatherDisplay:10.37,2013-10-28 03:32:00,
2013-10-27 20:37:00,59.7,39.4,29.76,WSW,247,11.5,11.5,47,0.00,CLR,,0.00,WeatherDisplay:10.37,2013-10-28 03:37:00,
2013-10-27 20:42:00,59.5,39.8,29.76,SW,218,11.5,11.5,48,0.00,CLR,,0.00,WeatherDisplay:10.37,2013-10-28 03:42:00,
2013-10-27 20:47:00,59.0,39.3,29.76,SW,229,10.4,10.4,48,0.00,CLR,,0.00,WeatherDisplay:10.37,2013-10-28 03:47:00,
2013-10-27 20:53:00,59.0,39.9,29.76,WSW,245,11.5,11.5,49,0.00,CLR,,0.00,WeatherDisplay:10.37,2013-10-28 03:53:00,
2013-10-27 20:58:00,59.0,40.9,29.76,SW,228,10.4,10.4,51,0.00,CLR,,0.00,WeatherDisplay:10.37,2013-10-28 03:58:00,
2013-10-27 21:01:00,58.8,39.7,29.76,SSW,211,6.9,6.9,49,0.00,CLR,,0.00,WeatherDisplay:10.37,2013-10-28 04:01:00,
2013-10-27 21:02:00,58.7,39.6,29.76,SSW,211,11.5,11.5,49,0.00,CLR,,0.00,WeatherDisplay:10.37,2013-10-28 04:02:00,
2013-10-27 21:03:00,58.6,40.0,29.76,WSW,249,10.4,10.4,50,0.00,CLR,,0.00,WeatherDisplay:10.37,2013-10-28 04:03:00,
2013-10-27 21:04:00,58.6,40.0,29.76,SSW,213,9.0,9.0,50,0.00,CLR,,0.00,WeatherDisplay:10.37,2013-10-28 04:04:00,
2013-10-27 21:06:00,58.6,40.0,29.76,SW,231,9.2,9.2,50,0.00,CLR,,0.00,WeatherDisplay:10.37,2013-10-28 04:06:00,
2013-10-27 21:11:00,58.6,40.5,29.76,SW,226,11.5,11.5,51,0.00,CLR,,0.00,WeatherDisplay:10.37,2013-10-28 04:11:00,
2013-10-27 21:16:00,58.6,40.5,29.76,WSW,239,11.5,11.5,51,0.00,CLR,,0.00,WeatherDisplay:10.37,2013-10-28 04:16:00,
2013-10-27 21:21:00,58.5,40.4,29.76,SSW,205,15.0,15.0,51,0.00,CLR,,0.00,WeatherDisplay:10.37,2013-10-28 04:21:00,
2013-10-27 21:26:00,58.4,40.3,29.75,SSW,212,16.1,16.1,51,0.00,CLR,,0.00,WeatherDisplay:10.37,2013-10-28 04:26:00,
2013-10-27 21:31:00,58.4,40.8,29.75,SW,218,13.8,13.8,52,0.00,CLR,,0.00,WeatherDisplay:10.37,2013-10-28 04:31:00,
2013-10-27 21:37:00,58.3,40.7,29.75,SW,227,18.4,18.4,52,0.00,CLR,,0.00,WeatherDisplay:10.37,2013-10-28 04:37:00,
2013-10-27 21:42:00,58.2,40.6,29.75,SW,217,16.1,16.1,52,0.00,CLR,,0.00,WeatherDisplay:10.37,2013-10-28 04:42:00,
2013-10-27 21:47:00,58.1,40.6,29.75,SW,226,16.1,16.1,52,0.00,CLR,,0.00,WeatherDisplay:10.37,2013-10-28 04:47:00,
2013-10-27 21:52:00,57.8,40.3,29.75,SSW,212,15.0,15.0,52,0.00,CLR,,0.00,WeatherDisplay:10.37,2013-10-28 04:52:00,
2013-10-27 21:57:00,57.7,41.2,29.75,SW,225,17.3,17.3,54,0.00,CLR,,0.00,WeatherDisplay:10.37,2013-10-28 04:57:00,
2013-10-27 22:02:00,57.5,41.4,29.75,WSW,238,15.0,15.0,55,0.00,CLR,,0.00,WeatherDisplay:10.37,2013-10-28 05:02:00,
2013-10-27 22:07:00,57.3,42.2,29.75,SSW,213,17.0,17.0,57,0.00,CLR,,0.00,WeatherDisplay:10.37,2013-10-28 05:07:00,
2013-10-27 22:12:00,56.9,42.3,29.75,SW,214,16.1,16.1,58,0.00,CLR,,0.00,WeatherDisplay:10.37,2013-10-28 05:12:00,
2013-10-27 22:18:00,56.7,42.5,29.75,WSW,241,17.3,17.3,59,0.00,CLR,,0.00,WeatherDisplay:10.37,2013-10-28 05:18:00,
2013-10-27 22:23:00,56.5,42.3,29.75,SW,236,16.1,16.1,59,0.00,CLR,,0.00,WeatherDisplay:10.37,2013-10-28 05:23:00,
2013-10-27 22:28:00,56.1,42.8,29.75,SW,223,18.4,18.4,61,0.00,CLR,,0.00,WeatherDisplay:10.37,2013-10-28 05:28:00,
2013-10-27 22:33:00,55.6,42.8,29.75,South,188,13.8,13.8,62,0.00,CLR,,0.00,WeatherDisplay:10.37,2013-10-28 05:33:00,
2013-10-27 22:38:00,55.1,42.7,29.75,SW,223,16.0,16.0,63,0.00,CLR,,0.00,WeatherDisplay:10.37,2013-10-28 05:38:00,
2013-10-27 22:43:00,54.7,43.2,29.75,WSW,238,17.3,17.3,65,0.00,CLR,,0.00,WeatherDisplay:10.37,2013-10-28 05:43:00,
2013-10-27 22:48:00,54.3,43.6,29.75,SW,218,16.1,16.1,67,0.00,CLR,,0.00,WeatherDisplay:10.37,2013-10-28 05:48:00,
2013-10-27 22:53:00,54.0,43.7,29.75,SW,232,19.6,19.6,68,0.00,CLR,,0.00,WeatherDisplay:10.37,2013-10-28 05:53:00,
2013-10-27 22:58:00,53.7,43.8,29.74,SW,221,19.6,19.6,69,0.00,CLR,,0.00,WeatherDisplay:10.37,2013-10-28 05:58:00,
2013-10-27 23:04:00,53.4,44.2,29.75,SW,214,23.0,23.0,71,0.00,CLR,,0.00,WeatherDisplay:10.37,2013-10-28 06:04:00,
2013-10-27 23:09:00,53.3,44.5,29.74,SW,219,26.5,26.5,72,0.00,CLR,,0.00,WeatherDisplay:10.37,2013-10-28 06:09:00,
2013-10-27 23:14:00,53.4,44.6,29.75,SW,229,24.2,24.2,72,0.00,CLR,,0.00,WeatherDisplay:10.37,2013-10-28 06:14:00,
2013-10-27 23:19:00,53.4,45.0,29.74,SW,215,26.5,26.5,73,0.00,CLR,,0.00,WeatherDisplay:10.37,2013-10-28 06:19:00,
2013-10-27 23:24:00,53.3,45.2,29.74,SW,221,26.5,26.5,74,0.00,CLR,,0.00,WeatherDisplay:10.37,2013-10-28 06:24:00,
2013-10-27 23:29:00,53.3,45.2,29.74,West,275,31.1,31.1,74,0.00,CLR,,0.00,WeatherDisplay:10.37,2013-10-28 06:29:00,
2013-10-27 23:34:00,53.1,45.4,29.74,SSW,209,31.1,31.1,75,0.00,CLR,,0.00,WeatherDisplay:10.37,2013-10-28 06:34:00,
2013-10-27 23:39:00,52.9,45.2,29.74,West,260,25.3,25.3,75,0.00,CLR,,0.00,WeatherDisplay:10.37,2013-10-28 06:39:00,
2013-10-27 23:45:00,52.7,45.0,29.74,SW,221,25.3,25.3,75,0.00,CLR,,0.00,WeatherDisplay:10.37,2013-10-28 06:45:00,
2013-10-27 23:50:00,52.7,45.3,29.74,WSW,252,27.6,27.6,76,0.00,CLR,,0.00,WeatherDisplay:10.37,2013-10-28 06:50:00,
2013-10-27 23:55:00,52.7,45.3,29.74,SW,222,26.5,26.5,76,0.00,CLR,,0.00,WeatherDisplay:10.37,2013-10-28 06:55:00,